• In Czech Republic
  • List of Countries
  • For 7 days
  • Water Temperature
  • Satellite Maps
  • Weather Map
  • Weather Widgets
  • user-avatar
    Login

    Hourly Weather Sozopol

    Today, 24 September, Monday

    Time Temperature Precipitation Wind Pressure Humidity
    00:00 +20°C° 0 mm 2 mps 760 mmHg 86%
    01:00 +20°C° 0 mm 2 mps 760 mmHg 86%
    02:00 +21°C° 0 mm 1 mps 759 mmHg 84%
    03:00 +20°C° 0 mm 2 mps 758 mmHg 83%
    04:00 +20°C° 0 mm 2 mps 758 mmHg 81%
    05:00 +20°C° 0 mm 2 mps 758 mmHg 80%
    06:00 +21°C° 0 mm 2 mps 757 mmHg 72%
    07:00 +24°C° 0 mm 2 mps 757 mmHg 63%
    08:00 +25°C° 0 mm 3 mps 756 mmHg 52%
    09:00 +28°C° 0 mm 3 mps 756 mmHg 44%
    10:00 +30°C° 0 mm 4 mps 756 mmHg 36%
    11:00 +33°C° 0 mm 4 mps 755 mmHg 28%
    12:00 +34°C° 0 mm 5 mps 755 mmHg 27%
    13:00 +35°C° 0 mm 5 mps 754 mmHg 25%
    14:00 +36°C° 0 mm 5 mps 754 mmHg 23%
    15:00 +35°C° 0 mm 5 mps 754 mmHg 26%
    16:00 +34°C° 0 mm 4 mps 754 mmHg 28%
    17:00 +34°C° 0 mm 4 mps 753 mmHg 30%
    18:00 +30°C° 0 mm 5 mps 754 mmHg 35%
    19:00 +27°C° 0 mm 7 mps 755 mmHg 40%
    20:00 +23°C° 0 mm 9 mps 756 mmHg 45%
    21:00 +22°C° 0 mm 9 mps 757 mmHg 47%
    22:00 +19°C° 0 mm 10 mps 758 mmHg 49%
    23:00 +18°C° 0 mm 10 mps 759 mmHg 52%

    Tomorrow, 25 September, Tuesday

    Time Temperature Precipitation Wind Pressure Humidity
    00:00 +17°C° 0.1 mm 10 mps 760 mmHg 57%
    01:00 +16°C° 0.1 mm 10 mps 761 mmHg 62%
    02:00 +13°C° 0.1 mm 9 mps 762 mmHg 68%
    03:00 +13°C° 0.2 mm 8 mps 762 mmHg 69%
    04:00 +14°C° 0.2 mm 7 mps 763 mmHg 70%
    05:00 +13°C° 0.2 mm 6 mps 763 mmHg 72%
    06:00 +13°C° 0.3 mm 6 mps 764 mmHg 70%
    07:00 +13°C° 0.3 mm 6 mps 764 mmHg 68%
    08:00 +13°C° 0.3 mm 5 mps 765 mmHg 66%
    09:00 +14°C° 0 mm 5 mps 765 mmHg 61%
    10:00 +15°C° 0 mm 5 mps 765 mmHg 55%
    11:00 +16°C° 0 mm 5 mps 765 mmHg 50%
    12:00 +17°C° 0 mm 5 mps 765 mmHg 42%
    13:00 +20°C° 0 mm 5 mps 765 mmHg 35%
    14:00 +21°C° 0 mm 5 mps 765 mmHg 27%
    15:00 +20°C° 0 mm 5 mps 765 mmHg 29%
    16:00 +20°C° 0 mm 5 mps 765 mmHg 30%
    17:00 +19°C° 0 mm 6 mps 766 mmHg 31%
    18:00 +16°C° 0 mm 5 mps 766 mmHg 42%
    19:00 +15°C° 0 mm 5 mps 767 mmHg 52%
    20:00 +13°C° 0 mm 5 mps 767 mmHg 63%
    21:00 +12°C° 0 mm 5 mps 767 mmHg 61%
    22:00 +12°C° 0 mm 5 mps 768 mmHg 58%
    23:00 +10°C° 0 mm 6 mps 768 mmHg 56%

    Day after tomorrow, 26 September, Wednesday

    Time Temperature Precipitation Wind Pressure Humidity
    00:00 +10°C° 0 mm 6 mps 768 mmHg 54%
    01:00 +10°C° 0 mm 7 mps 769 mmHg 52%
    02:00 +10°C° 0 mm 8 mps 769 mmHg 50%
    03:00 +10°C° 0 mm 8 mps 769 mmHg 52%
    04:00 +9°C° 0 mm 8 mps 769 mmHg 53%
    05:00 +9°C° 0 mm 8 mps 769 mmHg 54%
    06:00 +10°C° 0 mm 9 mps 769 mmHg 52%
    07:00 +10°C° 0 mm 9 mps 770 mmHg 50%
    08:00 +11°C° 0 mm 10 mps 770 mmHg 48%
    09:00 +12°C° 0 mm 10 mps 770 mmHg 43%
    10:00 +14°C° 0 mm 10 mps 770 mmHg 39%
    11:00 +16°C° 0 mm 10 mps 770 mmHg 35%
    12:00 +16°C° 0 mm 10 mps 770 mmHg 34%
    13:00 +17°C° 0 mm 10 mps 770 mmHg 33%
    14:00 +17°C° 0 mm 10 mps 769 mmHg 32%
    15:00 +16°C° 0 mm 10 mps 769 mmHg 33%
    16:00 +16°C° 0 mm 10 mps 769 mmHg 35%
    17:00 +14°C° 0 mm 10 mps 769 mmHg 37%
    18:00 +13°C° 0 mm 10 mps 769 mmHg 40%
    19:00 +12°C° 0 mm 9 mps 770 mmHg 42%
    20:00 +11°C° 0 mm 9 mps 770 mmHg 45%
    21:00 +11°C° 0 mm 9 mps 770 mmHg 46%
    22:00 +10°C° 0 mm 9 mps 770 mmHg 46%
    23:00 +10°C° 0 mm 9 mps 770 mmHg 47%

    27 September, Thursday

    Time Temperature Precipitation Wind Pressure Humidity
    00:00 +8°C° 0 mm 9 mps 770 mmHg 48%
    01:00 +8°C° 0 mm 9 mps 770 mmHg 49%
    02:00 +8°C° 0 mm 9 mps 769 mmHg 50%
    03:00 +7°C° 0 mm 9 mps 769 mmHg 51%
    04:00 +7°C° 0 mm 9 mps 769 mmHg 52%
    05:00 +7°C° 0 mm 9 mps 768 mmHg 53%
    06:00 +8°C° 0 mm 9 mps 768 mmHg 50%
    07:00 +10°C° 0 mm 9 mps 768 mmHg 48%
    08:00 +10°C° 0 mm 9 mps 768 mmHg 46%
    09:00 +12°C° 0.1 mm 9 mps 768 mmHg 45%
    10:00 +13°C° 0.1 mm 9 mps 768 mmHg 45%
    11:00 +15°C° 0.1 mm 9 mps 768 mmHg 44%
    12:00 +16°C° 0.1 mm 9 mps 767 mmHg 45%
    13:00 +17°C° 0.1 mm 9 mps 767 mmHg 45%
    14:00 +17°C° 0.1 mm 9 mps 766 mmHg 46%
    15:00 +17°C° 0 mm 9 mps 766 mmHg 48%
    16:00 +16°C° 0 mm 9 mps 765 mmHg 49%
    17:00 +16°C° 0 mm 9 mps 765 mmHg 51%
    18:00 +15°C° 0 mm 8 mps 765 mmHg 56%
    19:00 +13°C° 0 mm 8 mps 765 mmHg 61%
    20:00 +12°C° 0 mm 7 mps 765 mmHg 66%
    21:00 +12°C° 0 mm 7 mps 765 mmHg 67%
    22:00 +11°C° 0 mm 7 mps 765 mmHg 68%
    23:00 +11°C° 0 mm 7 mps 765 mmHg 69%

    28 September, Friday

    Time Temperature Precipitation Wind Pressure Humidity
    00:00 +11°C° 0 mm 7 mps 764 mmHg 69%
    01:00 +11°C° 0 mm 7 mps 764 mmHg 69%
    02:00 +11°C° 0 mm 7 mps 764 mmHg 69%
    03:00 +10°C° 0 mm 7 mps 763 mmHg 68%
    04:00 +10°C° 0 mm 7 mps 763 mmHg 68%
    05:00 +10°C° 0 mm 7 mps 763 mmHg 67%
    06:00 +11°C° 0 mm 7 mps 763 mmHg 62%
    07:00 +14°C° 0 mm 7 mps 763 mmHg 58%
    08:00 +15°C° 0 mm 7 mps 762 mmHg 54%
    09:00 +16°C° 0 mm 7 mps 762 mmHg 51%
    10:00 +18°C° 0 mm 7 mps 762 mmHg 48%
    11:00 +21°C° 0 mm 7 mps 762 mmHg 46%
    12:00 +22°C° 0 mm 7 mps 761 mmHg 45%
    13:00 +22°C° 0 mm 7 mps 761 mmHg 45%
    14:00 +23°C° 0 mm 6 mps 760 mmHg 45%
    15:00 +22°C° 0 mm 6 mps 760 mmHg 48%
    16:00 +21°C° 0 mm 6 mps 760 mmHg 52%
    17:00 +20°C° 0 mm 5 mps 759 mmHg 55%
    18:00 +19°C° 0 mm 5 mps 760 mmHg 62%
    19:00 +16°C° 0 mm 5 mps 760 mmHg 69%
    20:00 +15°C° 0 mm 4 mps 760 mmHg 75%
    21:00 +15°C° 0 mm 4 mps 760 mmHg 78%
    22:00 +14°C° 0 mm 3 mps 759 mmHg 80%
    23:00 +14°C° 0 mm 3 mps 759 mmHg 82%

    29 September, Saturday

    Time Temperature Precipitation Wind Pressure Humidity
    00:00 +14°C° 0 mm 3 mps 759 mmHg 83%
    01:00 +14°C° 0 mm 3 mps 759 mmHg 84%
    02:00 +13°C° 0 mm 3 mps 759 mmHg 84%
    03:00 +13°C° 0.1 mm 3 mps 758 mmHg 85%
    04:00 +13°C° 0.1 mm 3 mps 758 mmHg 86%
    05:00 +13°C° 0.1 mm 3 mps 758 mmHg 87%
    06:00 +14°C° 0.8 mm 3 mps 758 mmHg 85%
    07:00 +14°C° 0.8 mm 3 mps 758 mmHg 83%
    08:00 +16°C° 0.8 mm 3 mps 758 mmHg 81%
    09:00 +17°C° 0.5 mm 3 mps 758 mmHg 78%
    10:00 +18°C° 0.5 mm 3 mps 758 mmHg 75%
    11:00 +19°C° 0.5 mm 3 mps 758 mmHg 73%
    12:00 +19°C° 0.1 mm 3 mps 758 mmHg 71%
    13:00 +19°C° 0.1 mm 3 mps 758 mmHg 69%
    14:00 +20°C° 0.1 mm 2 mps 757 mmHg 68%
    15:00 +19°C° 0 mm 2 mps 757 mmHg 68%
    16:00 +19°C° 0 mm 2 mps 757 mmHg 68%
    17:00 +19°C° 0 mm 2 mps 757 mmHg 69%
    18:00 +18°C° 0 mm 2 mps 758 mmHg 72%
    19:00 +17°C° 0 mm 2 mps 758 mmHg 76%
    20:00 +16°C° 0 mm 2 mps 758 mmHg 80%
    21:00 +16°C° 0 mm 2 mps 758 mmHg 80%
    22:00 +16°C° 0 mm 2 mps 759 mmHg 79%
    23:00 +16°C° 0 mm 2 mps 759 mmHg 79%
    Show more